WELCOME TO TCFT

Voted One Of The Best Flight Schools In The USA

 

 

BECOME AN AIRLINE PILOT

Treasure Coast Flight Training is committed to serving all of your aviation needs as a full service flight academy, aircraft rental facility, and pilot shop

 

 

Questions About Becoming An Airline Pilot?

 

 

What Our Graduates Say

 

 

The training I received with Treasure Coast Flight Training prepared me to become a professional pilot

 

Nathan Meisner

Pilot - Cessna Caravan - USA

Professional yet relaxed environment. Truly an enjoyable experience to fly with TCFT

 

Sophia

Certified Flight Instructor - China

The training I needed to get me to where I am now!

 

Enderson Rafael

Pilot - Go Airlines - Brazil

Thank you TCFT for making me an airline pilot!

 

Kyle Barrett

Pilot - GoJet Airlines - USA

Current Conditions

 

Metar

 

KSUA 232350Z 00000KT 7SM VCTS SCT030 30/23 A3003

 

TAF

 

TAF KSUA 231736Z 2318/2418 07008KT P6SM VCTS SCT035CB BKN050 TEMPO 2318/2320 3SM TSRA BKN025CB FM240000 27004KT P6SM VCSH SCT030 SCT250 FM240200 VRB02KT P6SM FEW030 SCT250 FM241400 06007KT P6SM SCT030

 

 

Look No Further. Get Started Today